Tracking 30107 objects as of 19-Jan-2025
HD Live streaming from Space Station
objects crossing your sky now

WSF-M

Track WSF-M now!
10-day predictions
WSF-M is classified as:


NORAD ID: 59481
Int'l Code: 2024-070A
Perigee: 826.8 km
Apogee: 834.1 km
Inclination: 98.7 °
Period: 101.4 minutes
Semi major axis: 7201 km
RCS: Unknown
Launch date: April 11, 2024
Source: United States (US)
Launch site: AIR FORCE WESTERN TEST RANGE (AFWTR)
Your satellite tracking list
Your tracking list is empty




NASA's NSSDC Master Catalog

Two Line Element Set (TLE):
1 59481U 24070A   25018.52993570  .00000153  00000-0  91287-4 0  9996
2 59481  98.7197  28.4327 0005040  20.2961 339.8415 14.20599552 40026
Source of the keplerian elements: AFSPC